Погода в Дамбулле

Шри-Ланка     7°52′19″N   80°39′07″E
темп.,
°C
ветер,
м/с
пор.,
м/с
влажн.,
%
обл.,
%
осадки,
мм/ч
давл.,
гПа
погр.,
м
14 апреля, ср
ср1423:30+23ю1195100 3.3 101312
02:30+22ююз119597 0.0 101117
05:30+22юз119568 0.0 101116
08:30+27сз017540 0.1 1013469
11:30+32св225388 0.4 10111587
14:30+28зюз1276100 3.8 1008188
17:30+25с0188100 7.9 100911
20:30+23юз1192100 2.3 101211
15 апреля, чт
чт1523:30+23зюз119689 4.3 101226
02:30+22зюз119792 0.5 101029
05:30+22юз119781 0.6 101120
08:30+26зюз1379100 0.0 1013380
11:30+30з2361100 0.6 10121377
14:30+29зсз2374100 1.9 1009776
17:30+25з1288100 6.1 100938
20:30+23в119499 5.9 101227
16 апреля, пт
пт1623:30+23ююз119697 6.1 101230
02:30+22юз1197100 0.0 101037
05:30+22юз1296100 0.0 101140
08:30+26юз127889 0.0 1013293
11:30+32сз1150100 0.0 10111596
14:30+27з1176100 1.1 100975
17:30+26зюз2186100 2.9 100933
20:30+23юз1294100 0.3 101253
17 апреля, сб
сб1723:30+22ююз119466 0.4 101220
02:30+22ююз119492 0.0 101017
05:30+22ююз119418 0.0 101115
08:30+28з116910 0.0 1013457
11:30+33сз214719 0.0 10111696
14:30+29юз1167100 0.5 100947
17:30+24ююз259399 5.9 1010163
20:30+23юз1294100 1.3 101364
18 апреля, вс
вс1823:30+23юз229560 1.6 101472
02:30+22юз129658 0.4 101243
05:30+22юз129627 0.4 101249
08:30+27юз247279 0.0 1014520
11:30+33з234788 0.0 10121710
14:30+32з445192 0.1 10091737
17:30+28зюз47715 0.5 1009701
20:30+24юз2585100 0.4 1013225